Regional Weather Roundup
Issued by NWS

Home | Current Version | Previous Version | Graphics & Text | Print | Product List | Glossary On
Versions: 1 2 3 4 5 6 7 8 9 10 11 12 13 14 15 16 17 18 19 20 21 22 23 24 25 26 27 28 29 30 31 32 33 34 35 36 37 38 39 40 41 42 43 44 45 46 47 48 49 50
000
ASUS45 KBOI 291610
RWRID
WEATHER ROUNDUP FOR IDAHO
NATIONAL WEATHER SERVICE BOISE ID
1000 AM MDT FRI AUG 29 2014

NOTE: "FAIR" INDICATES FEW OR NO CLOUDS BELOW 12000 FEET
WITH NO SIGNIFICANT WEATHER AND/OR OBSTRUCTIONS TO VISIBILITY

IDZ012-014-291700-
SOUTHWEST IDAHO


CITY           SKY/WX    TMP DP  RH WIND       PRES   REMARKS
BOISE          SUNNY     73  40  30 CALM      29.99S
CALDWELL       SUNNY     68  45  42 N3        30.00S
MOUNTAIN HOME  SUNNY     69  41  36 E3        30.01S
$$

IDZ016-017-291700-
SOUTHCENTRAL IDAHO


CITY           SKY/WX    TMP DP  RH WIND       PRES   REMARKS
BURLEY         SUNNY     66  50  56 CALM      30.07S
JEROME         SUNNY     66  47  50 CALM      30.07S
TWIN FALLS     SUNNY     72  48  42 SW6       30.08R
$$

IDZ019>023-291700-
SOUTHEAST IDAHO


CITY           SKY/WX    TMP DP  RH WIND       PRES   REMARKS
IDAHO FALLS    SUNNY     64  49  57 CALM      30.12F
POCATELLO      SUNNY     70  50  49 NW5       30.10S
REXBURG        SUNNY     64  49  57 CALM      30.13S
$$

IDZ006-010-011-018-031-032-291700-
CENTRAL IDAHO MOUNTAINS


CITY           SKY/WX    TMP DP  RH WIND       PRES   REMARKS
MCCALL         SUNNY     61  44  53 CALM      30.09F
HAILEY         SUNNY     63  39  42 NW9       30.16S
STANLEY          N/A     54  38  54 N3        30.22F
SALMON         SUNNY     61  46  59 CALM      30.08F
CHALLIS        SUNNY     62  43  49 N5        30.13F
$$

IDZ002-004-006-007-026-291700-
NORTHERN IDAHO


CITY           SKY/WX    TMP DP  RH WIND       PRES   REMARKS
LEWISTON       SUNNY     66  48  52 VRB3      29.95F
LOWELL           N/A     60  52  74 CALM      30.01F
COEUR D`ALENE  SUNNY     66  48  52 SE6       29.96S
MULLAN PASS    MOSUNNY   57  40  52 VRB5      30.11S
$$


USA.gov is the U.S. government's official web portal to all federal, state and local government web resources and services.